Location: Unspecified
(0.0000°N, 0.0000°E)
Time: 08:58:03
(UTC+00:00)

SKYMED 3 - Visible Passes

Search period start: 22 April 2018 00:00
Search period end: 02 May 2018 00:00
Orbit: 621 x 623 km, 97.9° (Epoch: 21 April)

Date Brightness Start Highest point End Pass type
(mag) Time Alt. Az. Time Alt. Az. Time Alt. Az.
22 Apr 7.2 18:16:31 10° NNW 18:20:12 27° WNW 18:23:53 10° SW visible
23 Apr 7.9 04:50:42 10° ESE 04:53:22 16° ENE 04:56:01 10° NE visible
23 Apr 8.0 18:35:37 10° NW 18:38:11 16° WNW 18:40:46 10° WSW visible
24 Apr 6.9 05:07:37 10° SE 05:11:21 28° ENE 05:15:03 10° NNE visible
25 Apr 5.6 05:25:07 10° SSE 05:29:20 51° ENE 05:33:32 10° N visible
28 Apr 8.0 04:45:21 10° ESE 04:47:24 13° ENE 04:49:26 10° NE visible
28 Apr 7.8 18:29:11 10° NNW 18:32:13 19° WNW 18:35:16 10° WSW visible
29 Apr 7.3 05:01:55 10° SE 05:05:23 23° ENE 05:08:50 10° NNE visible
29 Apr 8.5 18:49:35 10° WNW 18:50:12 10° WNW 18:50:48 10° W visible
30 Apr 6.1 05:19:17 10° SSE 05:23:23 42° ENE 05:27:27 10° N visible
